Wind_Speed
29 29 32 27 24 21 17 14 18 12 17 13 18 18 16 17 18 16 15 15 16 15 16 19 19 19 18 18 17 16 16 15 17 19 17 18 17 19 18 18 20 20 20 21
27 31 24 23 22 21 18 11 13 13 14 15 16 18 18 17 19 20 19 19 19 20 18 19 21 21 22 22 21 19 18 19 19 20 19 20 20 20 20 21 20 21 22 23
30 20 25 24 25 25 22 18 16 12 11 13 15 20 18 17 20 21 20 21 21 22 20 19 20 21 21 23 23 22 21 22 22 22 24 24 24 22 20 18 19 20 23 25
22 28 19 26 26 23 21 18 16 14 11 6 7 5 5 6 11 14 16 18 19 20 21 20 21 19 19 17 18 20 22 23 23 24 26 25 24 23 20 22 22 23 23 24
22 24 28 22 28 22 20 16 16 17 14 11 12 7 4 7 12 14 14 16 18 18 17 15 18 18 18 18 17 17 17 18 18 19 21 22 23 23 23 25 26 27 27 29
22 17 21 25 19 19 16 16 13 11 8 5 14 14 8 12 15 18 15 14 15 16 16 14 11 9 8 6 6 8 10 11 12 14 16 18 21 23 24 25 26 27 29 30
28 21 22 21 23 22 20 19 4 1 2 5 9 13 8 11 15 14 14 15 15 14 12 10 9 8 7 8 8 9 10 12 15 17 17 17 19 19 19 21 22 23 25 27
27 15 28 24 28 31 26 26 10 7 4 3 10 9 7 18 18 17 18 17 16 15 14 12 10 9 9 10 10 11 13 14 13 14 14 15 17 18 19 20 22 24 26 27
30 22 24 24 25 23 30 31 22 5 4 2 7 8 12 19 25 21 20 20 19 17 14 13 12 10 10 10 10 10 10 12 11 12 12 13 14 15 17 18 20 22 25 26
15 11 20 28 28 28 23 28 18 12 4 3 5 8 12 24 29 28 26 23 21 18 16 14 12 10 10 9 10 10 10 11 13 15 17 18 19 21 22 24 25 26 29 31
31 19 15 31 33 39 33 29 21 18 10 5 3 8 22 21 27 32 31 27 24 21 18 15 13 14 15 14 13 13 15 17 18 20 22 24 25 27 29 30 30 30 32 34
41 23 15 31 31 36 36 34 38 20 9 15 4 7 12 25 27 30 31 30 28 25 23 20 17 17 17 16 18 20 23 25 27 26 24 24 24 25 28 30 31 32 34 36
44 25 14 11 24 32 38 40 36 37 23 25 12 11 18 23 30 30 31 30 30 28 26 25 24 23 22 23 25 28 28 30 28 27 27 29 29 33 33 33 34 36 38 40
34 39 38 30 26 32 39 42 39 37 29 26 32 27 21 29 30 30 32 33 31 30 28 27 25 24 25 28 32 34 37 37 35 36 35 37 37 38 38 39 40 41 43 44
32 33 39 40 35 23 34 44 42 43 45 27 45 38 33 32 25 31 34 33 32 30 26 25 26 28 31 34 36 37 38 39 38 38 37 38 39 40 41 42 42 44 46 47
38 24 35 35 34 29 29 28 36 45 46 48 45 30 29 27 31 32 35 33 30 26 26 29 34 38 40 38 36 34 32 30 29 31 33 34 36 38 40 41 42 43 44 46
40 37 25 26 31 24 21 42 41 42 46 48 49 45 28 25 35 35 35 31 28 33 36 39 37 34 32 30 28 26 27 28 30 32 34 35 37 38 40 42 44 46 47 48
28 33 21 13 23 10 31 33 39 40 39 41 43 41 35 29 23 28 35 35 32 34 32 31 30 28 26 26 27 28 30 32 33 36 38 40 41 42 44 45 47 48 49 50
17 14 9 9 14 4 16 18 23 34 43 41 34 32 32 27 25 27 29 30 30 28 27 24 24 24 27 29 30 31 33 34 36 38 39 41 44 45 46 46 47 47 48 49
17 14 19 10 4 7 9 12 12 10 17 18 27 28 26 27 31 30 29 26 25 24 24 24 25 28 30 32 34 36 37 39 40 41 42 44 46 47 46 46 46 47 47 48
27 26 27 23 11 12 15 12 11 16 13 14 25 28 29 30 27 23 22 23 23 23 24 28 29 32 35 36 38 39 41 44 46 47 47 48 47 47 47 46 46 46 46 46
30 25 23 28 16 16 22 17 20 21 22 17 18 24 26 24 21 20 19 20 22 25 28 32 33 35 37 39 41 43 45 47 50 52 51 50 49 47 46 46 47 46 46 46
29 31 31 24 26 18 22 24 22 19 16 20 19 20 23 23 21 21 21 23 27 30 31 34 35 37 40 43 45 47 50 54 56 53 51 47 46 46 46 45 45 46 44 42
34 31 33 28 30 28 29 25 18 15 18 18 19 19 19 19 22 26 29 30 31 32 34 36 38 40 42 47 50 54 56 55 54 53 50 49 47 45 43 42 40 37 36 37
29 32 36 37 37 25 28 29 23 22 22 22 20 21 24 26 28 30 30 31 33 36 37 40 43 46 49 52 52 51 51 51 50 51 49 48 46 44 41 38 38 39 41 41
33 37 36 39 36 33 28 22 22 22 22 23 27 29 30 30 29 30 32 36 38 41 43 44 44 43 42 43 45 47 49 50 51 50 49 48 47 45 43 42 42 43 44 43
Wind_Direction
197 199 205 204 205 209 219 214 222 218 231 235 241 243 235 242 247 245 249 249 247 241 234 241 243 245 246 250 248 249 251 252 249 252 253 253 253 250 250 250 254 258 261 266
205 211 209 210 213 217 221 205 213 224 236 242 252 251 247 242 251 254 248 247 247 248 248 242 247 250 249 248 252 252 254 253 254 256 256 256 254 252 252 255 258 263 267 268
211 217 210 213 215 217 222 225 229 235 237 246 262 271 260 249 251 251 250 248 249 251 251 246 244 250 252 249 249 251 252 255 257 259 258 260 262 262 261 261 259 257 260 265
219 215 209 214 221 220 223 227 228 232 232 241 248 274 184 195 225 233 239 241 243 247 245 245 244 250 258 259 253 251 252 255 257 257 258 262 267 267 266 262 260 262 262 265
207 213 214 211 220 219 222 226 225 231 243 247 241 257 248 201 225 230 241 242 239 240 241 244 242 250 256 257 257 253 252 255 257 257 259 260 263 266 264 264 263 265 267 269
215 212 211 222 210 211 215 210 197 203 221 248 232 215 225 233 236 241 238 224 221 222 228 232 231 229 235 251 268 269 264 266 268 269 268 265 265 266 268 268 267 268 271 273
212 209 208 207 204 198 200 185 131 204 197 218 198 203 213 193 184 195 199 198 200 199 202 213 221 233 254 269 274 276 277 273 269 269 272 272 270 270 272 273 273 271 270 272
200 206 206 205 204 200 187 190 169 189 193 207 184 220 212 196 192 197 198 203 203 205 206 214 227 238 252 258 263 271 278 278 275 273 274 277 278 279 281 279 279 280 281 281
201 210 207 208 212 204 196 201 210 164 152 165 200 211 194 195 204 205 201 202 202 202 208 215 227 236 244 258 271 273 279 273 270 270 271 272 279 285 294 297 296 295 295 294
212 189 202 199 200 207 216 210 191 199 129 231 231 221 201 200 203 209 210 211 215 219 221 225 225 241 256 262 272 279 281 287 291 294 299 299 299 299 299 298 297 291 289 289
216 212 196 194 199 208 203 202 201 199 208 163 161 237 215 216 213 212 208 211 217 223 228 235 240 252 263 267 272 284 296 301 303 303 303 299 296 296 298 295 292 287 282 279
214 217 209 205 210 213 220 217 211 198 199 211 207 235 205 208 212 210 212 214 220 228 237 242 248 258 266 271 284 303 308 310 311 309 305 301 296 290 285 285 284 285 284 282
213 211 192 201 217 216 216 218 220 218 227 222 196 236 213 204 210 212 215 223 227 234 242 247 256 265 278 290 304 309 311 311 308 306 305 302 301 297 296 294 291 290 290 291
211 216 215 213 222 217 215 218 219 219 222 230 229 232 201 211 210 218 224 226 232 236 243 251 263 276 292 298 303 306 306 305 301 299 297 294 292 290 290 291 291 290 289 289
207 217 220 227 231 227 229 227 222 220 226 219 241 237 237 223 229 222 222 226 231 238 250 264 277 291 296 298 299 298 296 292 290 291 291 291 292 293 294 294 294 295 294 294
208 214 220 223 228 228 226 225 231 234 232 233 241 243 240 227 219 225 226 231 239 251 269 282 288 289 292 290 286 287 287 288 289 289 290 291 293 295 296 297 298 297 297 296
207 214 209 216 217 214 230 230 230 231 231 233 235 240 238 224 226 229 232 239 260 264 268 271 274 276 276 278 279 283 286 290 293 295 297 298 299 299 298 298 298 297 296 296
209 211 209 209 204 208 234 235 231 236 238 236 239 243 244 245 233 232 248 257 254 255 260 266 270 272 275 279 284 289 291 293 296 299 300 301 301 301 301 300 299 298 297 297
249 193 172 177 193 249 234 228 226 226 236 232 228 245 248 243 241 247 247 249 253 258 260 263 268 274 280 282 285 289 292 296 300 302 303 305 304 304 303 302 300 300 299 299
219 219 229 194 184 205 244 224 175 176 234 222 227 234 238 240 243 246 246 247 249 256 263 270 275 281 281 285 288 292 295 299 304 306 306 308 308 308 306 305 305 305 305 306
201 203 210 212 208 240 238 238 217 206 245 245 239 237 235 237 240 241 244 248 254 260 265 274 279 282 285 287 291 295 299 302 305 309 309 309 308 306 304 305 305 306 306 306
200 191 206 207 210 252 247 236 237 259 250 245 214 222 228 238 241 244 252 255 260 267 274 279 282 285 289 292 294 298 300 302 304 307 307 307 305 303 302 303 303 305 306 306
209 214 213 219 227 237 244 245 238 244 233 222 223 226 233 240 245 247 250 259 270 277 280 283 286 289 291 293 295 298 300 302 303 305 304 302 301 301 302 303 303 305 307 305
220 226 224 224 233 236 243 236 224 215 220 226 240 253 247 251 258 265 270 275 279 282 284 285 287 289 291 294 296 298 299 300 300 300 300 300 300 300 301 300 300 301 303 305
228 228 231 234 238 232 235 242 242 239 241 246 246 252 259 264 267 270 272 274 279 283 286 287 288 290 292 294 296 297 298 298 298 299 299 299 299 298 296 295 295 295 297 302
228 231 229 235 242 243 250 249 247 243 241 247 257 264 268 269 269 269 272 278 282 284 285 288 291 293 295 296 297 297 297 298 299 300 299 298 295 292 291 291 290 294 298 302
Height
3122 3126 3128 3133 3139 3141 3145 3147 3152 3153 3156 3156 3156 3157 3161 3162 3163 3166 3166 3167 3168 3169 3170 3170 3171 3172 3174 3175 3176 3178 3179 3181 3181 3181 3182 3183 3184 3184 3185 3186 3186 3186 3187 3186
3122 3121 3129 3134 3135 3141 3143 3145 3148 3150 3153 3154 3153 3154 3157 3158 3159 3160 3160 3162 3163 3163 3165 3166 3167 3168 3169 3171 3172 3173 3175 3175 3176 3177 3178 3177 3179 3179 3180 3181 3182 3182 3182 3181
3117 3120 3126 3128 3132 3137 3140 3141 3146 3149 3150 3150 3150 3150 3152 3153 3153 3154 3155 3155 3157 3158 3160 3161 3162 3163 3164 3165 3166 3168 3169 3170 3171 3172 3172 3172 3173 3174 3175 3176 3176 3176 3175 3174
3118 3119 3120 3125 3130 3133 3135 3140 3142 3146 3148 3149 3149 3149 3148 3148 3148 3149 3150 3150 3151 3153 3155 3156 3157 3158 3159 3160 3161 3162 3163 3164 3165 3166 3166 3168 3168 3169 3171 3170 3170 3169 3169 3168
3112 3113 3117 3120 3125 3131 3132 3138 3140 3143 3145 3145 3146 3151 3142 3142 3143 3145 3145 3145 3146 3148 3150 3151 3152 3154 3155 3155 3157 3157 3158 3159 3159 3160 3161 3162 3162 3163 3163 3163 3163 3162 3162 3160
3107 3110 3114 3118 3122 3126 3130 3134 3139 3141 3143 3142 3142 3146 3140 3139 3139 3140 3141 3142 3143 3144 3147 3148 3150 3151 3152 3153 3154 3155 3156 3156 3156 3156 3157 3156 3156 3156 3157 3156 3156 3156 3155 3154
3103 3107 3109 3113 3117 3121 3124 3131 3138 3142 3142 3138 3137 3139 3136 3135 3134 3138 3138 3139 3141 3143 3145 3147 3148 3149 3150 3152 3152 3152 3153 3153 3152 3152 3152 3152 3151 3151 3151 3151 3150 3149 3149 3148
3095 3103 3102 3106 3109 3110 3119 3125 3124 3135 3137 3132 3134 3130 3129 3132 3133 3134 3136 3138 3139 3141 3142 3145 3145 3146 3147 3149 3149 3149 3149 3150 3149 3149 3148 3148 3148 3148 3147 3146 3145 3144 3143 3142
3088 3094 3096 3101 3106 3112 3114 3118 3121 3124 3129 3129 3127 3127 3127 3126 3129 3131 3133 3135 3137 3139 3141 3143 3143 3144 3144 3145 3145 3145 3145 3146 3145 3145 3145 3144 3144 3143 3143 3142 3140 3139 3137 3136
3083 3088 3092 3097 3103 3107 3106 3113 3117 3121 3129 3133 3121 3120 3117 3120 3123 3126 3129 3132 3134 3136 3138 3139 3139 3139 3139 3140 3141 3141 3142 3142 3142 3141 3140 3140 3139 3138 3137 3136 3134 3133 3131 3129
3079 3082 3089 3092 3092 3093 3100 3103 3108 3112 3113 3115 3121 3111 3111 3114 3116 3119 3123 3126 3129 3131 3133 3134 3135 3135 3136 3136 3137 3138 3138 3138 3137 3137 3136 3135 3134 3133 3131 3129 3128 3126 3124 3121
3072 3079 3082 3083 3086 3090 3093 3095 3099 3101 3105 3107 3108 3106 3106 3109 3113 3116 3118 3121 3124 3127 3128 3129 3129 3129 3130 3132 3133 3133 3133 3133 3132 3131 3130 3128 3127 3125 3123 3121 3118 3116 3115 3112
3064 3071 3076 3082 3086 3083 3083 3087 3092 3095 3098 3098 3104 3100 3103 3106 3109 3112 3115 3117 3120 3122 3123 3123 3124 3124 3125 3125 3125 3125 3125 3125 3124 3122 3121 3119 3117 3117 3114 3112 3110 3107 3105 3102
3058 3061 3063 3063 3064 3071 3075 3078 3084 3090 3094 3090 3092 3095 3097 3100 3103 3107 3110 3112 3115 3117 3118 3118 3118 3119 3119 3119 3118 3118 3117 3116 3115 3114 3112 3110 3109 3107 3105 3102 3099 3096 3092 3089
3052 3052 3056 3058 3062 3065 3068 3071 3076 3080 3081 3085 3081 3087 3091 3094 3100 3103 3104 3106 3108 3110 3111 3112 3112 3112 3112 3112 3112 3111 3110 3109 3107 3104 3103 3101 3099 3096 3094 3091 3087 3084 3080 3076
3043 3045 3049 3053 3055 3059 3061 3065 3068 3072 3075 3076 3076 3081 3084 3092 3094 3097 3098 3100 3101 3103 3105 3105 3105 3105 3105 3104 3103 3102 3101 3099 3098 3096 3094 3092 3089 3086 3083 3080 3076 3073 3069 3065
3037 3040 3043 3045 3049 3054 3055 3050 3057 3060 3062 3067 3067 3071 3078 3082 3086 3090 3092 3093 3095 3096 3098 3099 3099 3098 3097 3097 3096 3095 3093 3092 3090 3088 3086 3083 3080 3077 3074 3070 3066 3062 3058 3054
3029 3033 3037 3038 3043 3047 3039 3040 3047 3052 3056 3059 3062 3066 3072 3077 3082 3084 3086 3086 3088 3089 3089 3090 3090 3089 3089 3088 3087 3086 3085 3083 3081 3078 3075 3072 3069 3066 3063 3059 3054 3050 3046 3041
3023 3028 3031 3033 3034 3035 3033 3032 3038 3041 3044 3051 3056 3061 3065 3069 3071 3073 3074 3076 3078 3079 3080 3081 3081 3080 3080 3079 3077 3076 3075 3073 3070 3067 3065 3061 3057 3054 3050 3046 3043 3038 3034 3029
3018 3023 3028 3030 3031 3032 3028 3032 3035 3038 3039 3042 3049 3055 3057 3059 3060 3064 3066 3068 3069 3070 3071 3072 3071 3070 3070 3069 3067 3065 3063 3061 3059 3056 3052 3049 3044 3040 3037 3032 3029 3024 3020 3015
3013 3017 3020 3023 3027 3025 3025 3030 3033 3036 3037 3039 3043 3046 3048 3050 3053 3055 3057 3060 3062 3063 3063 3063 3062 3061 3059 3058 3056 3054 3052 3049 3046 3043 3040 3036 3033 3028 3024 3020 3016 3011 3007 3002
3002 3009 3012 3016 3020 3021 3018 3023 3026 3030 3030 3032 3036 3039 3042 3044 3046 3048 3050 3052 3053 3054 3054 3053 3053 3051 3049 3046 3044 3042 3041 3038 3035 3032 3029 3025 3021 3017 3013 3008 3004 3000 2995 2990
2998 3000 3003 3008 3006 3008 3009 3014 3017 3021 3025 3028 3032 3035 3036 3037 3039 3042 3043 3044 3045 3045 3044 3043 3042 3040 3037 3035 3033 3031 3029 3026 3023 3020 3016 3012 3009 3005 3002 2998 2993 2988 2983 2979
2990 2992 2996 3000 3000 3002 3005 3008 3012 3016 3020 3023 3025 3027 3030 3032 3032 3033 3034 3034 3034 3034 3034 3033 3031 3030 3028 3024 3022 3019 3017 3014 3010 3007 3004 3000 2997 2994 2990 2987 2982 2978 2973 2969
2983 2986 2987 2990 2992 2995 2999 3002 3006 3009 3012 3015 3018 3020 3021 3022 3023 3024 3024 3025 3025 3024 3024 3023 3021 3019 3017 3014 3011 3008 3004 3000 2997 2994 2990 2987 2983 2980 2978 2975 2971 2967 2963 2959
2973 2975 2978 2980 2987 2991 2995 2997 2999 3001 3004 3007 3009 3010 3011 3013 3014 3015 3016 3016 3015 3014 3014 3012 3010 3007 3004 3001 2999 2995 2991 2988 2984 2981 2977 2974 2971 2968 2965 2962 2960 2956 2952 2948